FW4382 Weather Reports


time (UTC)temp
C
wind
direction
speed
KPH
gust
KPH
rain 1hr
cm
rain 24hr
cm
rain mn
cm
humidity
%
barometer
mb
20260505130138 16 130 0.0 1.6 0.00 0.03 0.00 52 1013.0
20260505124131 16 129 0.0 0.0 0.00 0.03 0.00 54 1013.0
20260505123631 16 129 0.0 0.0 0.00 0.03 0.00 54 1013.0
20260505123130 15 129 0.0 0.0 0.00 0.03 0.00 55 1013.0
20260505122629 15 129 0.0 0.0 0.00 0.03 0.00 55 1013.0
20260505122129 15 130 0.0 0.0 0.00 0.03 0.00 55 1012.9
20260505121627 15 116 0.0 0.0 0.00 0.03 0.00 55 1012.7
20260505121127 15 117 0.0 0.0 0.00 0.03 0.00 55 1012.6
20260505120623 15 115 0.0 0.0 0.00 0.03 0.00 56 1012.6
20260505120124 15 115 0.0 0.0 0.00 0.03 0.00 56 1012.5
20260505115623 15 115 0.0 0.0 0.00 0.03 0.00 56 1012.6
20260505115120 14 115 0.0 0.0 0.00 0.03 0.00 56 1012.5
20260505114622 14 147 0.0 0.0 0.00 0.03 0.00 56 1012.6
20260505114121 14 147 0.0 0.0 0.00 0.03 0.00 56 1012.6
20260505113621 14 147 0.0 0.0 0.00 0.03 0.00 56 1012.5
20260505113118 14 147 0.0 0.0 0.00 0.03 0.00 56 1012.6
20260505112618 14 147 0.0 0.0 0.00 0.03 0.00 56 1012.6
20260505112117 14 147 0.0 0.0 0.00 0.03 0.00 56 1012.6
20260505111617 14 147 0.0 0.0 0.00 0.03 0.00 55 1012.5
20260505111114 14 147 0.0 0.0 0.00 0.03 0.00 55 1012.4
20260505110613 14 147 0.0 0.0 0.00 0.03 0.00 55 1012.3
20260505110113 14 147 0.0 0.0 0.00 0.03 0.00 54 1012.3
20260505102109 15 147 0.0 0.0 0.00 0.13 0.00 52 1011.5
20260505101608 15 147 0.0 0.0 0.00 0.13 0.00 52 1011.5
20260505100609 15 147 0.0 0.0 0.00 0.13 0.00 52 1011.5
20260505100109 15 147 0.0 0.0 0.00 0.15 0.00 52 1011.5
20260505095608 15 147 0.0 0.0 0.00 0.15 0.00 52 1011.5
20260505095108 15 147 0.0 0.0 0.00 0.15 0.00 52 1011.3
20260505094609 15 147 0.0 0.0 0.00 0.15 0.00 52 1011.2
20260505094104 15 147 0.0 0.0 0.00 0.15 0.00 52 1011.1
20260505093104 16 147 0.0 3.2 0.00 0.15 0.00 51 1011.0
20260505092604 16 147 0.0 3.2 0.00 0.15 0.00 51 1011.1
20260505092105 16 147 0.0 1.6 0.00 0.15 0.00 51 1011.2
20260505091604 16 147 0.0 1.6 0.00 0.15 0.00 51 1011.1
20260505091105 16 147 0.0 4.8 0.00 0.15 0.00 51 1011.1
20260505090604 16 147 0.0 4.8 0.00 0.15 0.00 51 1011.0
20260505090105 16 147 0.0 3.2 0.00 0.15 0.00 51 1011.0
20260505085605 16 147 0.0 3.2 0.00 0.15 0.00 50 1011.0
20260505085105 16 203 0.0 0.0 0.00 0.15 0.00 50 1010.9
20260505084105 16 203 0.0 1.6 0.00 0.15 0.00 50 1010.8
20260505083104 16 304 1.6 6.4 0.00 0.15 0.00 50 1010.7
20260505082604 16 109 0.0 3.2 0.00 0.15 0.00 50 1010.6
20260505082105 16 105 0.0 3.2 0.00 0.15 0.00 50 1010.5
20260505081605 16 105 0.0 6.4 0.00 0.15 0.00 50 1010.5
20260505080602 16 156 0.0 0.0 0.00 0.15 0.00 49 1010.7
20260505080103 16 156 0.0 1.6 0.00 0.15 0.00 49 1010.6
20260505075602 16 156 0.0 3.2 0.00 0.15 0.00 49 1010.6
20260505075102 16 156 0.0 6.4 0.00 0.15 0.00 49 1010.6
20260505074602 17 162 0.0 6.4 0.00 0.15 0.00 49 1010.6
20260505074102 17 128 0.0 0.0 0.00 0.15 0.00 49 1010.5
20260505073602 17 127 0.0 4.8 0.00 0.15 0.00 49 1010.5
20260505073108 17 150 1.6 4.8 0.00 0.15 0.00 49 1010.5
20260505072603 17 163 1.6 6.4 0.00 0.15 0.00 49 1010.5
20260505072102 17 163 1.6 6.4 0.00 0.15 0.00 49 1010.5
20260505071605 17 36 1.6 6.4 0.00 0.15 0.00 49 1010.5
20260505071106 17 36 1.6 6.4 0.00 0.15 0.00 49 1010.6
20260505070056 17 147 0.0 3.2 0.00 0.15 0.00 49 1010.5
20260505065552 17 147 0.0 0.0 0.00 0.15 0.00 49 1010.6
20260505064046 17 147 0.0 3.2 0.00 0.15 0.00 49 1010.6
20260505063544 17 148 1.6 4.8 0.00 0.15 0.00 49 1010.6
20260505062545 17 148 0.0 3.2 0.00 0.15 0.00 49 1010.7
20260505062044 17 148 0.0 4.8 0.00 0.15 0.00 49 1010.6
20260505061542 17 148 0.0 4.8 0.00 0.15 0.00 49 1010.7
20260505061041 17 149 0.0 4.8 0.00 0.15 0.00 49 1010.7
20260505060547 17 141 1.6 4.8 0.00 0.15 0.00 49 1010.6
20260505055541 17 159 0.0 3.2 0.00 0.15 0.00 49 1010.7
20260505055034 17 159 0.0 3.2 0.00 0.15 0.00 49 1010.7
20260505054536 17 159 0.0 1.6 0.00 0.15 0.00 49 1010.8
20260505054033 17 159 0.0 3.2 0.00 0.15 0.00 49 1010.9
20260505053531 17 159 0.0 3.2 0.00 0.15 0.00 49 1010.9
20260505053029 17 159 0.0 3.2 0.00 0.15 0.00 49 1011.0
20260505052530 17 160 0.0 3.2 0.00 0.15 0.00 49 1011.0
20260505052028 17 161 0.0 3.2 0.00 0.15 0.00 49 1011.0
20260505051525 17 161 0.0 1.6 0.00 0.15 0.00 49 1011.0
20260505051024 17 161 0.0 1.6 0.00 0.15 0.00 49 1011.0
20260505050524 17 161 0.0 1.6 0.00 0.15 0.00 48 1011.0
20260505041510 17 161 0.0 0.0 0.00 0.15 0.00 47 1010.8
20260505041008 18 161 0.0 0.0 0.00 0.15 0.00 47 1010.8
20260505040508 18 161 0.0 0.0 0.00 0.15 0.00 47 1010.7
20260505040007 18 161 0.0 0.0 0.00 0.15 0.00 46 1010.6
20260505034501 18 161 0.0 1.6 0.00 0.15 0.15 46 1010.5
20260505034001 18 161 0.0 1.6 0.00 0.15 0.15 46 1010.4
20260505033501 18 161 0.0 1.6 0.00 0.15 0.15 46 1010.4
20260505033000 18 161 0.0 1.6 0.00 0.15 0.15 46 1010.4
20260505032459 18 161 0.0 1.6 0.00 0.15 0.15 46 1010.4
20260505031958 18 161 0.0 3.2 0.00 0.15 0.15 45 1010.3
20260505031500 18 161 0.0 3.2 0.00 0.15 0.15 45 1010.2
20260505030955 18 161 0.0 1.6 0.00 0.15 0.15 45 1010.3
20260505030452 18 161 0.0 1.6 0.00 0.15 0.15 45 1010.3
20260505025950 19 161 0.0 1.6 0.00 0.15 0.15 45 1010.2
20260505025447 19 161 0.0 1.6 0.00 0.15 0.15 45 1010.0
20260505024945 19 161 0.0 1.6 0.00 0.15 0.15 45 1009.9
20260505023941 19 161 0.0 1.6 0.00 0.15 0.15 44 1009.7
20260505023443 19 161 0.0 1.6 0.00 0.15 0.15 44 1009.6
20260505022935 19 161 0.0 3.2 0.00 0.15 0.15 44 1009.6
20260505022433 20 161 0.0 3.2 0.00 0.15 0.15 44 1009.5
20260505021930 20 161 0.0 1.6 0.00 0.15 0.15 43 1009.4
20260505021428 20 161 0.0 1.6 0.00 0.15 0.15 43 1009.5
20260505020935 20 161 0.0 0.0 0.00 0.15 0.15 43 1009.4
20260505015919 20 161 0.0 1.6 0.00 0.15 0.15 42 1009.4
20260505015416 20 161 0.0 1.6 0.00 0.15 0.15 42 1009.3
20260505014919 20 161 0.0 1.6 0.00 0.15 0.15 42 1009.2
20260505014414 20 161 0.0 1.6 0.00 0.15 0.15 42 1009.2
20260505013412 21 161 0.0 3.2 0.00 0.15 0.15 41 1009.1
20260505012911 21 161 0.0 1.6 0.00 0.15 0.15 41 1009.0
20260505012409 21 161 0.0 1.6 0.00 0.15 0.15 40 1009.1
20260505011909 21 161 0.0 3.2 0.00 0.15 0.15 40 1009.1
20260505010909 21 161 0.0 1.6 0.00 0.15 0.15 40 1009.0
20260505010408 21 161 0.0 6.4 0.00 0.15 0.15 39 1009.0
20260505005907 21 161 0.0 6.4 0.00 0.15 0.15 39 1009.0
20260505005407 21 187 0.0 1.6 0.00 0.15 0.15 38 1008.9
20260505004905 21 187 0.0 3.2 0.00 0.15 0.15 38 1008.8
20260505004403 22 187 0.0 3.2 0.00 0.15 0.15 38 1008.8
20260505003903 22 187 0.0 1.6 0.00 0.15 0.15 38 1008.7
20260505003407 22 187 0.0 3.2 0.00 0.15 0.15 38 1008.9
20260505002901 22 187 0.0 3.2 0.00 0.15 0.15 36 1008.9
20260505002402 22 205 0.0 1.6 0.00 0.15 0.15 36 1008.9
20260505001857 22 205 0.0 1.6 0.00 0.15 0.15 36 1008.9
20260505001351 22 205 0.0 1.6 0.00 0.15 0.15 36 1009.1
20260505000339 23 206 0.0 3.2 0.00 0.15 0.15 35 1009.3
20260504235339 23 226 0.0 4.8 0.00 0.15 0.15 35 1009.4
20260504234837 23 234 0.0 4.8 0.00 0.15 0.15 35 1009.5
20260504234335 23 161 0.0 3.2 0.00 0.15 0.15 34 1009.7
20260504233834 23 160 1.6 6.4 0.00 0.15 0.15 33 1009.7
20260504232332 23 118 1.6 6.4 0.00 0.15 0.15 33 1010.0
20260504231331 24 119 1.6 6.4 0.00 0.15 0.15 33 1010.0
20260504230838 24 213 1.6 4.8 0.00 0.15 0.15 33 1010.0
20260504230335 24 256 1.6 6.4 0.00 0.15 0.15 33 1010.2
20260504225836 24 230 1.6 6.4 0.00 0.15 0.15 32 1010.3
20260504225335 24 216 1.6 4.8 0.00 0.15 0.15 32 1010.3
20260504224834 24 255 1.6 4.8 0.00 0.15 0.15 32 1010.2
20260504224329 24 253 1.6 4.8 0.00 0.15 0.15 31 1010.3
20260504223829 24 202 1.6 4.8 0.00 0.15 0.15 31 1010.3
20260504223329 24 159 1.6 6.4 0.00 0.15 0.15 31 1010.2
20260504222825 25 209 1.6 6.4 0.00 0.15 0.15 31 1010.2
20260504222318 25 207 0.0 4.8 0.00 0.15 0.15 33 1010.3
20260504221813 25 227 1.6 6.4 0.00 0.15 0.15 34 1010.3
20260504221307 25 242 1.6 6.4 0.00 0.15 0.15 33 1010.2
20260504220806 25 340 1.6 6.4 0.00 0.15 0.15 32 1010.3
20260504220305 25 240 1.6 6.4 0.00 0.15 0.15 33 1010.3
20260504215306 25 216 1.6 8.0 0.00 0.15 0.15 33 1010.3
20260504214806 25 204 1.6 6.4 0.00 0.15 0.15 33 1010.2
20260504214306 25 198 1.6 3.2 0.00 0.15 0.15 33 1010.0
20260504213804 25 207 1.6 6.4 0.00 0.15 0.15 33 1010.2
20260504213303 25 207 1.6 6.4 0.00 0.15 0.15 31 1010.3
20260504212803 25 209 1.6 4.8 0.00 0.15 0.15 32 1010.3
20260504212308 25 248 1.6 8.0 0.00 0.15 0.15 34 1010.2
20260504211301 25 149 1.6 9.7 0.00 0.15 0.15 32 1010.3
20260504210800 25 223 1.6 9.7 0.00 0.15 0.15 32 1010.3
20260504205301 25 232 1.6 6.4 0.00 0.15 0.15 34 1010.4
20260504204800 25 232 1.6 6.4 0.00 0.15 0.15 32 1010.4
20260504204301 25 175 1.6 6.4 0.00 0.15 0.15 33 1010.4
20260504203755 25 92 1.6 6.4 0.00 0.15 0.15 32 1010.4
20260504201745 26 256 1.6 6.4 0.00 0.15 0.15 32 1010.5
20260504201250 26 144 1.6 4.8 0.00 0.15 0.15 31 1010.6
20260504200748 26 157 1.6 6.4 0.00 0.15 0.15 33 1010.8
20260504195739 25 162 1.6 4.8 0.00 0.15 0.15 33 1011.0
20260504195239 25 234 1.6 4.8 0.00 0.15 0.15 32 1011.1
20260504194739 25 159 1.6 6.4 0.00 0.15 0.15 33 1011.2
20260504194239 25 180 3.2 6.4 0.00 0.15 0.15 32 1011.3
20260504193737 25 200 1.6 6.4 0.00 0.15 0.15 33 1011.3
20260504193234 25 229 1.6 6.4 0.00 0.15 0.15 34 1011.4
20260504192732 25 132 1.6 8.0 0.00 0.15 0.15 36 1011.4
20260504192233 25 225 3.2 8.0 0.00 0.15 0.15 35 1011.5
20260504191733 24 166 1.6 8.0 0.00 0.15 0.15 36 1011.6
20260504191230 24 182 1.6 8.0 0.00 0.15 0.15 36 1011.7
20260504190729 24 236 1.6 6.4 0.00 0.15 0.15 37 1011.7
20260504190230 24 209 1.6 4.8 0.00 0.15 0.15 36 1011.7
20260504185729 24 209 1.6 8.0 0.00 0.15 0.15 37 1011.7
20260504185233 24 194 1.6 8.0 0.00 0.15 0.15 36 1011.7
20260504184729 24 226 1.6 6.4 0.00 0.15 0.15 37 1011.7
20260504184223 24 237 1.6 4.8 0.00 0.15 0.15 36 1011.7
20260504183718 24 158 1.6 11.3 0.00 0.15 0.15 37 1011.7
20260504182706 24 211 3.2 12.9 0.00 0.15 0.15 36 1011.7
20260504182205 24 167 3.2 12.9 0.00 0.15 0.15 35 1011.7
20260504181705 25 188 3.2 6.4 0.00 0.15 0.15 35 1011.7
20260504181205 25 215 3.2 8.0 0.00 0.15 0.15 34 1011.7
20260504180703 25 160 3.2 8.0 0.00 0.15 0.15 36 1011.7
20260504180209 25 188 3.2 6.4 0.00 0.15 0.15 35 1011.6
20260504175708 25 187 3.2 8.0 0.00 0.15 0.15 37 1011.6
20260504175208 24 215 3.2 8.0 0.00 0.15 0.15 36 1011.6
20260504174707 24 141 3.2 8.0 0.00 0.15 0.15 35 1011.6
20260504174208 24 202 1.6 8.0 0.00 0.15 0.15 35 1011.6
20260504173707 24 145 1.6 11.3 0.00 0.15 0.15 38 1011.5
20260504173204 24 211 3.2 11.3 0.00 0.15 0.15 36 1011.6
20260504172701 24 157 3.2 14.5 0.00 0.15 0.15 39 1011.6
20260504172201 23 186 3.2 14.5 0.00 0.15 0.15 37 1011.6
20260504171201 23 174 3.2 11.3 0.00 0.15 0.15 38 1011.6
20260504170701 23 196 3.2 8.0 0.00 0.15 0.15 39 1011.8
20260504170200 23 157 3.2 11.3 0.00 0.15 0.15 39 1011.9
20260504150701 16 78 3.2 8.0 0.00 0.15 0.15 51 1013.0
20260504150201 16 100 3.2 9.7 0.00 0.15 0.15 52 1013.2
20260504141202 12 154 0.0 3.2 0.03 0.15 0.15 56 1013.9
20260504140701 12 153 0.0 3.2 0.03 0.15 0.15 56 1014.1
20260504140202 12 155 0.0 1.6 0.03 0.15 0.15 56 1014.5